Wind_Speed
8 7 6 11 16 20 25 30 34 37 40 44 49 55 60 69 77 83 95 105 106 109 116 115 119 120 125 119 115 119 119 104 98 98 94 94 93 89 84 85 83 82 74 66 63
6 5 10 16 20 24 31 36 41 44 46 53 54 48 54 61 78 81 92 106 122 130 131 128 130 128 128 130 130 126 120 107 106 107 106 103 100 97 91 88 81 80 78 77 70
8 12 16 21 25 31 37 43 48 53 58 65 61 52 51 63 72 90 106 115 132 138 143 144 145 143 141 142 134 136 128 114 112 112 114 111 109 104 97 94 90 87 83 78 75
14 18 21 27 31 38 42 48 54 60 67 74 76 76 79 76 76 73 111 125 138 148 151 149 149 146 148 148 148 145 133 126 122 118 120 114 115 110 103 95 98 95 89 84 79
18 23 26 32 39 43 48 54 58 64 71 79 86 89 94 95 89 76 74 90 106 130 143 152 161 155 150 148 147 150 142 135 131 126 127 124 120 117 114 106 105 103 97 89 84
23 26 31 37 43 47 53 57 61 67 75 83 92 98 103 101 88 75 67 65 68 81 114 131 140 143 158 158 152 148 145 141 136 133 130 125 121 120 115 113 112 114 101 93 89
26 31 36 40 45 50 56 59 62 69 77 85 90 100 107 104 82 65 52 51 60 61 73 93 110 117 135 143 161 159 151 143 140 134 133 131 128 119 118 117 114 116 107 102 96
30 34 39 41 46 51 57 59 64 70 76 81 87 97 106 99 81 68 53 39 42 49 54 64 80 94 110 119 136 147 160 149 145 138 132 133 129 128 122 117 113 116 108 104 100
32 37 40 42 47 52 58 60 66 70 77 77 84 99 103 105 97 71 61 45 29 33 42 44 65 78 87 103 117 134 144 155 148 146 140 135 129 131 127 120 117 118 114 108 105
34 35 39 43 48 53 57 60 66 71 79 78 85 94 98 103 95 75 60 47 37 24 28 34 42 62 74 82 97 113 130 141 152 151 146 141 132 131 129 124 121 120 119 112 108
32 34 40 45 49 53 55 59 66 73 77 79 92 101 104 114 112 95 76 53 40 31 23 25 30 43 58 68 76 89 107 119 137 148 150 142 143 134 130 129 125 122 121 116 112
32 36 40 45 49 54 55 59 66 76 80 80 92 99 101 106 108 105 84 68 51 38 27 18 22 30 41 51 62 70 86 109 122 134 143 147 142 139 137 129 125 126 124 119 116
32 37 40 45 49 54 55 60 68 76 81 83 87 91 96 101 106 103 92 69 52 45 33 22 16 22 30 37 47 59 74 90 108 119 131 141 146 143 141 137 132 127 123 122 121
33 35 41 44 50 53 55 61 68 75 79 85 88 91 96 100 106 109 101 83 67 50 41 31 19 13 19 28 37 48 64 75 86 103 121 131 142 144 141 136 133 132 129 128 127
34 37 40 42 48 52 56 61 68 74 80 87 89 94 96 99 103 107 109 101 83 62 50 37 27 17 9 18 26 39 51 63 76 87 103 120 131 144 141 137 140 137 136 136 132
38 37 38 43 47 51 55 61 67 72 79 83 91 92 92 97 102 106 109 106 94 74 57 48 36 25 13 7 17 26 38 53 68 76 85 100 119 134 145 144 139 137 137 134 135
38 36 36 42 46 50 56 61 67 71 78 84 86 84 88 93 96 97 101 103 101 90 73 59 48 34 22 7 5 17 29 42 58 65 72 82 98 122 137 144 143 140 139 136 131
36 33 36 40 46 52 56 61 67 71 75 81 86 82 86 88 92 96 100 103 105 102 91 75 61 47 33 19 4 6 20 32 45 57 65 72 84 100 118 138 146 143 139 136 134
34 34 39 41 47 52 57 63 67 70 72 76 79 82 86 86 88 92 95 99 100 101 98 88 74 58 46 32 17 3 9 20 33 48 59 66 74 89 102 123 141 144 141 136 133
38 38 40 45 47 52 59 63 66 71 72 74 77 81 85 83 84 86 91 95 99 101 99 95 85 73 58 45 33 16 3 11 24 35 47 55 61 69 87 103 125 139 144 141 137
41 42 42 43 47 54 56 62 66 69 71 74 77 83 85 81 82 84 87 90 96 97 99 96 92 85 73 54 43 31 16 4 13 25 36 46 51 59 71 86 108 130 141 145 142
43 43 42 45 49 52 56 60 65 69 69 72 75 79 84 84 83 80 83 87 88 90 92 96 94 89 81 69 56 43 30 17 6 13 22 34 47 51 58 69 86 110 128 139 143
42 43 45 48 51 55 59 61 64 67 66 69 74 80 86 87 85 83 82 85 84 85 87 89 91 90 86 78 67 58 41 28 17 7 12 25 36 41 47 56 67 85 111 129 142
43 45 47 50 54 56 59 60 63 67 64 68 72 78 84 87 86 86 83 81 83 82 85 85 86 90 89 84 76 68 54 41 25 14 7 16 28 38 45 50 57 70 92 117 137
42 43 47 50 53 55 59 62 62 66 65 67 70 74 79 85 87 85 87 88 85 82 82 84 84 84 87 88 82 73 65 53 39 23 12 8 18 28 36 41 50 62 75 95 123
41 43 46 49 52 55 57 60 61 65 66 69 71 75 79 83 85 86 84 87 84 86 86 86 90 87 85 82 83 80 71 62 50 34 20 11 14 23 33 38 43 50 62 79 103
46 42 45 47 52 53 55 58 59 64 67 69 70 74 78 81 82 84 81 81 80 83 86 84 92 90 84 89 87 84 76 72 62 47 34 21 15 22 28 35 41 47 55 69 86
Wind_Direction
323 331 320 305 306 307 309 308 303 299 294 290 290 282 275 268 261 257 256 248 247 245 242 240 237 235 236 238 236 235 234 233 232 231 232 234 234 231 233 234 237 236 233 231 236
58 345 317 317 320 324 318 314 310 307 302 307 315 296 275 282 263 261 258 252 245 240 236 235 235 234 233 233 235 234 234 232 230 229 231 233 233 234 231 234 234 236 234 235 235
351 330 326 325 327 323 321 317 313 314 320 326 331 321 312 282 268 256 252 250 248 243 238 235 232 231 231 230 231 233 230 228 229 230 231 232 236 236 233 235 235 236 235 235 233
339 336 332 331 332 328 326 326 324 324 328 329 332 334 333 330 320 281 254 252 250 246 245 241 237 235 233 232 232 232 231 227 227 230 232 230 232 233 234 235 237 235 235 235 233
336 336 333 332 336 334 332 332 331 331 330 331 331 330 337 337 326 305 279 262 257 253 251 246 243 238 237 236 235 235 232 228 228 229 233 233 232 233 235 235 238 238 236 236 235
334 333 332 333 336 335 339 336 337 334 334 333 332 339 337 335 333 316 302 284 264 250 249 250 245 245 240 236 236 236 233 231 229 229 230 231 233 234 233 234 237 238 237 236 234
329 330 334 334 337 340 340 340 341 339 338 334 334 336 336 338 337 321 310 292 280 266 251 247 244 246 243 239 236 235 233 232 230 228 229 230 230 233 233 233 234 237 236 235 234
334 332 338 336 338 342 342 344 344 345 339 339 336 337 337 344 347 337 325 308 285 274 259 247 245 243 242 240 237 235 233 231 230 228 226 227 229 229 228 230 231 235 236 234 235
330 334 336 339 342 343 345 347 348 347 343 342 344 338 339 352 356 348 344 332 314 281 272 251 243 243 239 238 237 235 233 230 229 229 227 226 225 227 228 228 230 232 233 232 232
327 333 337 343 345 346 348 349 350 348 349 348 345 340 349 355 4 354 352 346 336 316 283 267 246 241 241 237 234 233 233 230 228 228 228 227 225 225 225 225 227 229 233 232 231
333 338 343 347 347 349 351 352 351 350 351 352 343 346 356 0 2 7 358 354 351 341 319 284 258 243 241 238 235 233 231 231 230 228 227 227 226 226 225 226 225 227 231 231 231
338 342 347 350 349 350 354 354 354 357 356 354 349 354 -0 4 3 9 7 2 359 355 343 310 274 248 242 239 234 230 229 229 229 227 226 226 226 225 226 226 226 226 229 230 231
341 346 351 351 350 354 355 357 358 2 359 355 356 -0 2 3 3 12 16 10 7 6 0 348 301 264 245 239 232 227 225 225 225 226 225 224 225 224 225 226 226 227 228 230 232
343 348 353 352 353 355 357 360 2 4 4 2 -0 4 10 3 7 10 16 17 15 17 13 6 353 306 261 239 233 225 224 224 224 223 224 222 222 223 224 225 226 228 227 228 229
345 350 352 353 356 357 0 0 6 5 6 9 5 7 11 6 11 10 14 20 20 18 17 17 7 353 299 250 235 229 222 222 223 224 223 223 221 221 222 222 222 223 226 226 228
348 353 352 355 358 359 1 -0 7 5 8 9 11 13 11 11 12 14 15 16 22 23 23 25 21 13 356 276 233 226 222 219 222 223 221 222 221 220 220 221 222 224 225 227 229
349 354 353 357 360 0 360 2 5 3 7 11 12 10 10 14 13 15 17 16 19 25 26 27 27 23 20 6 225 215 222 217 221 222 222 220 220 221 218 219 221 221 224 227 229
355 354 357 0 1 1 2 4 3 5 4 8 12 9 13 13 13 17 19 19 19 21 27 28 26 27 24 21 14 205 219 219 221 220 222 219 218 220 219 218 220 221 223 226 228
0 360 359 358 0 4 3 6 4 4 5 6 11 15 13 13 15 15 15 19 22 22 23 27 28 29 28 25 23 12 216 217 221 221 223 221 217 218 217 217 219 220 222 222 226
1 360 358 359 2 4 4 2 2 2 3 7 10 16 16 15 15 15 14 19 21 23 23 22 27 30 27 27 27 22 326 225 219 225 226 224 223 219 220 216 218 219 220 220 222
4 0 359 0 0 2 3 359 -0 1 2 5 9 13 17 18 16 15 17 19 22 22 23 23 22 25 29 29 28 26 16 305 227 228 223 225 224 222 222 219 216 218 219 219 221
2 1 358 357 359 359 358 358 358 360 2 4 8 11 16 20 19 18 20 21 21 22 22 22 22 22 22 28 30 26 22 15 312 243 233 224 226 225 223 223 220 217 218 219 219
355 355 355 354 356 357 357 358 356 359 2 4 7 10 14 16 18 17 19 21 21 21 21 21 22 22 21 20 25 28 24 18 9 316 244 227 222 222 226 226 225 220 218 218 218
350 351 350 350 352 355 355 355 355 358 2 4 6 9 12 14 15 16 16 19 20 20 20 19 19 20 21 20 19 22 25 21 11 357 305 236 223 214 216 220 222 220 218 219 219
343 344 344 347 348 350 352 353 353 356 360 4 5 6 12 12 13 14 14 19 21 21 19 19 18 18 19 21 19 17 16 19 17 3 335 279 235 224 222 220 218 219 217 217 220
337 339 339 340 343 345 349 350 351 354 359 1 2 4 8 13 12 11 14 19 24 26 26 25 25 22 21 19 19 20 16 12 13 11 357 304 257 235 224 223 221 220 219 217 219
334 333 335 337 340 343 345 347 349 354 358 -0 360 3 4 9 11 10 13 19 18 21 20 21 20 22 20 21 20 17 16 15 12 8 6 344 289 253 241 234 228 224 220 220 219
Height
10683 10682 10681 10679 10678 10676 10674 10669 10665 10661 10656 10650 10642 10633 10625 10613 10602 10596 10579 10575 10569 10564 10563 10565 10569 10573 10580 10587 10593 10601 10609 10645 10666 10668 10672 10672 10683 10689 10693 10700 10711 10723 10737 10748 10754
10681 10680 10679 10677 10674 10672 10667 10662 10657 10651 10646 10635 10621 10609 10602 10587 10572 10571 10547 10533 10515 10508 10513 10511 10515 10526 10537 10551 10555 10563 10591 10636 10630 10638 10647 10651 10661 10665 10680 10685 10701 10706 10721 10735 10745
10679 10678 10676 10673 10670 10665 10660 10654 10646 10635 10623 10609 10597 10587 10572 10558 10539 10520 10497 10484 10474 10473 10474 10479 10486 10488 10498 10506 10520 10528 10564 10593 10602 10609 10621 10635 10644 10650 10669 10677 10682 10692 10706 10718 10730
10678 10676 10672 10668 10665 10659 10651 10642 10630 10618 10603 10588 10574 10558 10541 10520 10495 10476 10457 10450 10443 10441 10439 10449 10462 10465 10473 10474 10492 10498 10533 10558 10570 10583 10595 10614 10622 10640 10650 10663 10659 10672 10689 10702 10716
10675 10672 10667 10663 10658 10650 10641 10629 10616 10602 10588 10571 10551 10534 10508 10484 10462 10433 10419 10414 10411 10402 10399 10410 10420 10433 10446 10454 10464 10476 10503 10528 10546 10562 10573 10586 10604 10615 10632 10646 10642 10651 10674 10689 10702
10672 10668 10663 10658 10650 10642 10631 10618 10605 10590 10572 10554 10530 10504 10482 10458 10427 10400 10384 10365 10362 10355 10342 10347 10365 10379 10408 10422 10435 10449 10476 10500 10523 10538 10548 10565 10584 10590 10614 10623 10623 10627 10660 10673 10687
10669 10664 10658 10651 10643 10633 10621 10609 10596 10579 10560 10540 10512 10483 10460 10439 10404 10371 10353 10334 10322 10319 10312 10315 10319 10335 10350 10370 10389 10406 10440 10466 10496 10514 10527 10541 10555 10586 10585 10598 10610 10607 10642 10653 10671
10665 10659 10653 10645 10637 10625 10614 10600 10587 10570 10551 10527 10502 10474 10447 10421 10379 10345 10326 10313 10297 10289 10287 10292 10292 10301 10315 10324 10348 10370 10393 10435 10458 10479 10501 10510 10543 10553 10557 10580 10595 10592 10622 10639 10652
10660 10655 10648 10639 10630 10619 10607 10593 10578 10562 10544 10520 10492 10464 10439 10393 10360 10329 10306 10290 10281 10273 10265 10270 10269 10274 10284 10296 10312 10332 10359 10398 10420 10445 10462 10490 10517 10526 10543 10561 10577 10581 10597 10618 10630
10656 10650 10642 10633 10623 10612 10599 10586 10571 10556 10531 10508 10489 10470 10435 10397 10360 10319 10298 10279 10266 10260 10253 10250 10253 10253 10259 10271 10285 10299 10329 10354 10386 10405 10433 10464 10493 10499 10517 10537 10556 10563 10573 10597 10616
10652 10645 10637 10627 10617 10606 10595 10580 10565 10549 10530 10503 10475 10444 10410 10364 10340 10317 10289 10272 10258 10248 10242 10238 10238 10238 10241 10253 10265 10282 10306 10332 10359 10376 10411 10439 10462 10479 10497 10512 10533 10546 10556 10577 10597
10646 10639 10631 10622 10613 10601 10590 10578 10563 10545 10524 10502 10466 10430 10408 10380 10355 10323 10292 10268 10254 10241 10233 10229 10226 10227 10230 10237 10251 10267 10285 10302 10326 10352 10384 10411 10434 10456 10469 10496 10515 10526 10537 10555 10567
10642 10634 10627 10617 10608 10596 10585 10572 10558 10538 10519 10498 10470 10442 10416 10393 10360 10335 10305 10278 10256 10240 10230 10224 10221 10220 10222 10228 10237 10250 10263 10274 10295 10323 10352 10384 10403 10423 10446 10469 10489 10504 10526 10535 10545
10639 10631 10623 10614 10603 10593 10580 10567 10553 10535 10521 10492 10466 10442 10414 10388 10359 10326 10303 10280 10256 10244 10229 10222 10219 10216 10217 10220 10227 10239 10248 10264 10280 10303 10323 10350 10379 10400 10424 10455 10476 10486 10501 10509 10512
10635 10628 10619 10611 10602 10590 10577 10565 10547 10533 10515 10491 10465 10437 10414 10389 10362 10340 10306 10285 10266 10248 10235 10226 10219 10217 10216 10217 10222 10228 10240 10252 10266 10282 10303 10327 10356 10377 10405 10427 10423 10445 10458 10473 10485
10632 10624 10616 10608 10598 10588 10575 10562 10545 10532 10514 10493 10467 10445 10427 10396 10368 10341 10317 10294 10280 10259 10242 10231 10224 10219 10216 10216 10219 10225 10233 10243 10254 10266 10285 10306 10331 10352 10376 10394 10417 10435 10444 10462 10475
10628 10621 10614 10606 10597 10585 10572 10558 10545 10531 10514 10494 10478 10458 10431 10408 10387 10366 10343 10317 10293 10270 10252 10239 10232 10224 10219 10218 10219 10223 10227 10236 10245 10258 10273 10290 10310 10328 10357 10379 10399 10414 10430 10446 10469
10625 10618 10612 10603 10594 10582 10571 10558 10545 10529 10515 10499 10478 10462 10437 10418 10395 10371 10349 10325 10300 10279 10263 10249 10240 10231 10226 10223 10221 10222 10227 10233 10239 10251 10262 10276 10291 10311 10339 10363 10378 10399 10418 10432 10449
10622 10617 10610 10601 10592 10581 10570 10555 10544 10532 10518 10503 10488 10467 10444 10421 10401 10380 10361 10338 10319 10296 10277 10263 10250 10240 10233 10229 10227 10226 10226 10232 10239 10244 10253 10265 10278 10294 10315 10341 10359 10382 10402 10419 10434
10623 10615 10607 10599 10589 10578 10566 10557 10545 10530 10517 10504 10490 10473 10455 10432 10411 10392 10370 10348 10329 10308 10290 10275 10263 10251 10243 10237 10232 10231 10231 10233 10237 10242 10251 10261 10275 10290 10301 10323 10340 10362 10382 10400 10413
10622 10614 10606 10597 10587 10576 10567 10557 10545 10532 10518 10504 10489 10472 10456 10439 10418 10399 10379 10361 10337 10323 10306 10291 10275 10263 10254 10248 10241 10237 10235 10236 10238 10242 10246 10255 10268 10281 10292 10307 10324 10339 10358 10382 10394
10623 10615 10606 10596 10586 10578 10569 10557 10544 10532 10518 10505 10493 10478 10462 10445 10428 10410 10391 10370 10354 10341 10326 10307 10290 10278 10270 10259 10251 10245 10240 10240 10241 10243 10247 10255 10262 10273 10285 10295 10309 10324 10344 10367 10382
10621 10613 10604 10595 10587 10577 10565 10554 10544 10532 10519 10507 10494 10479 10463 10450 10436 10418 10399 10383 10368 10353 10338 10323 10310 10295 10280 10271 10263 10255 10250 10246 10244 10245 10248 10250 10257 10268 10277 10288 10298 10313 10330 10348 10366
10619 10609 10600 10593 10584 10575 10565 10555 10542 10531 10519 10507 10494 10481 10466 10454 10440 10422 10409 10393 10377 10361 10349 10335 10323 10309 10297 10283 10273 10266 10261 10255 10251 10249 10248 10250 10254 10259 10264 10274 10285 10298 10311 10329 10344
10617 10610 10601 10592 10583 10574 10563 10552 10542 10531 10519 10510 10498 10487 10474 10457 10443 10428 10411 10396 10381 10369 10359 10345 10333 10322 10310 10299 10288 10277 10270 10264 10259 10255 10252 10251 10254 10257 10263 10267 10273 10280 10293 10309 10321
10615 10607 10598 10590 10581 10571 10561 10551 10541 10530 10519 10507 10496 10484 10473 10461 10447 10433 10418 10404 10391 10380 10368 10356 10345 10332 10322 10313 10302 10292 10282 10274 10267 10260 10258 10254 10253 10254 10257 10261 10266 10271 10279 10288 10298
10609 10602 10595 10588 10578 10569 10560 10551 10541 10530 10519 10508 10497 10486 10472 10461 10451 10438 10424 10412 10402 10390 10378 10367 10354 10342 10329 10318 10308 10301 10293 10281 10272 10266 10262 10257 10254 10253 10253 10256 10259 10262 10266 10271 10279